EW7114 Weather Reports


Display with metric or nautical units.
time (UTC)temp
F
wind
direction
speed
MPH
gust
MPH
rain 1hr
in
rain 24hr
in
rain mn
in
humidity
%
barometer
mb
20260905182557 79 140 14.0 24.0 0.00 0.00 0.00 23 1005.2
20260905182056 79 151 15.0 26.0 0.00 0.00 0.00 24 1005.3
20260905181609 79 153 17.0 26.0 0.00 0.00 0.00 24 1005.4
20260905181057 79 147 13.0 26.0 0.00 0.00 0.00 25 1005.4
20260905180554 78 134 19.0 26.0 0.00 0.00 0.00 25 1005.5
20260905180053 78 131 19.0 28.0 0.00 0.00 0.00 26 1005.4
20260905175554 78 142 17.0 26.0 0.00 0.00 0.00 25 1005.4
20260905175055 78 165 19.0 25.0 0.00 0.00 0.00 26 1005.3
20260905174554 78 175 18.0 30.0 0.00 0.00 0.00 24 1005.5
20260905174052 77 167 20.0 34.0 0.00 0.00 0.00 25 1005.5
20260905173552 78 122 20.0 34.0 0.00 0.00 0.00 24 1005.4
20260905173051 78 128 18.0 24.0 0.00 0.00 0.00 26 1005.4
20260905172551 78 147 18.0 24.0 0.00 0.00 0.00 25 1005.4
20260905172049 78 124 17.0 26.0 0.00 0.00 0.00 24 1005.4
20260905171549 77 151 18.0 28.0 0.00 0.00 0.00 24 1005.5
20260905171048 77 137 18.0 28.0 0.00 0.00 0.00 25 1005.4
20260905170548 77 131 17.0 28.0 0.00 0.00 0.00 25 1005.4
20260905170050 77 180 21.0 29.0 0.00 0.00 0.00 25 1005.5
20260905165547 77 138 21.0 28.0 0.00 0.00 0.00 25 1005.5
20260905165048 77 139 20.0 28.0 0.00 0.00 0.00 25 1005.4
20260905164547 76 148 19.0 25.0 0.00 0.00 0.00 26 1005.4
20260905164050 76 152 19.0 26.0 0.00 0.00 0.00 25 1005.4
20260905163547 76 136 18.0 26.0 0.00 0.00 0.00 26 1005.4
20260905163049 76 145 19.0 24.0 0.00 0.00 0.00 26 1005.5
20260905162547 77 158 14.0 28.0 0.00 0.00 0.00 26 1005.4
20260905162045 77 135 14.0 25.0 0.00 0.00 0.00 26 1005.4
20260905161543 76 161 15.0 25.0 0.00 0.00 0.00 26 1005.4
20260905161043 75 122 17.0 24.0 0.00 0.00 0.00 28 1005.3
20260905160541 75 122 17.0 24.0 0.00 0.00 0.00 27 1005.5
20260905160108 75 138 17.0 21.0 0.00 0.00 0.00 27 1005.4
20260905155542 75 138 15.0 22.0 0.00 0.00 0.00 27 1005.4
20260905155139 74 153 15.0 22.0 0.00 0.00 0.00 28 1005.5
20260905154540 74 136 16.0 22.0 0.00 0.00 0.00 27 1005.5
20260905154039 74 149 14.0 22.0 0.00 0.00 0.00 27 1005.5
20260905153538 74 122 15.0 21.0 0.00 0.00 0.00 26 1005.5
20260905153037 74 131 13.0 20.0 0.00 0.00 0.00 27 1005.5
20260905152537 74 130 11.0 23.0 0.00 0.00 0.00 29 1005.6
20260905152034 73 116 15.0 23.0 0.00 0.00 0.00 27 1005.6
20260905151535 72 137 15.0 20.0 0.00 0.00 0.00 29 1005.6
20260905151032 72 124 14.0 21.0 0.00 0.00 0.00 31 1005.6
20260905150531 71 115 16.0 20.0 0.00 0.00 0.00 31 1005.5
20260905150030 71 126 15.0 20.0 0.00 0.00 0.00 32 1005.6
20260905145527 71 117 16.0 24.0 0.00 0.00 0.00 31 1005.6
20260905145029 70 148 12.0 21.0 0.00 0.00 0.00 34 1005.6
20260905144526 69 128 11.0 16.0 0.00 0.00 0.00 35 1005.6
20260905144031 69 133 12.0 16.0 0.00 0.00 0.00 35 1005.6
20260905143527 68 149 11.0 15.0 0.00 0.00 0.00 35 1005.6
20260905143025 67 132 12.0 14.0 0.00 0.00 0.00 35 1005.6
20260905142524 66 139 8.0 13.0 0.00 0.00 0.00 37 1005.6
20260905142023 65 120 10.0 13.0 0.00 0.00 0.00 37 1005.4
20260905141523 64 133 8.0 13.0 0.00 0.00 0.00 38 1005.3
20260905141022 63 116 9.0 13.0 0.00 0.00 0.00 39 1005.2
20260905140525 62 131 8.0 13.0 0.00 0.00 0.00 39 1005.2
20260905140021 62 113 10.0 15.0 0.00 0.00 0.00 39 1005.1
20260905135520 61 146 11.0 15.0 0.00 0.00 0.00 40 1005.0
20260905135019 60 138 11.0 16.0 0.00 0.00 0.00 40 1004.9
20260905134521 59 152 9.0 14.0 0.00 0.00 0.00 41 1005.0
20260905134021 59 131 8.0 12.0 0.00 0.00 0.00 41 1004.9
20260905133517 59 161 8.0 12.0 0.00 0.00 0.00 39 1004.9
20260905133016 58 145 9.0 14.0 0.00 0.00 0.00 41 1004.7
20260905132517 58 151 8.0 14.0 0.00 0.00 0.00 42 1004.6
20260905132015 56 145 10.0 13.0 0.00 0.00 0.00 43 1004.5
20260905131514 56 157 7.0 11.0 0.00 0.00 0.00 43 1004.4
20260905131013 57 168 8.0 11.0 0.00 0.00 0.00 41 1004.4
20260905130512 59 165 8.0 14.0 0.00 0.00 0.00 40 1004.3
20260905130011 58 147 10.0 14.0 0.00 0.00 0.00 41 1004.3
20260905125513 58 172 8.0 10.0 0.00 0.00 0.00 40 1004.3
20260905125009 60 192 7.0 11.0 0.00 0.00 0.00 39 1004.2
20260905124508 60 145 7.0 11.0 0.00 0.00 0.00 39 1004.2
20260905124009 60 132 9.0 11.0 0.00 0.00 0.00 39 1004.1
20260905123505 61 159 8.0 15.0 0.00 0.00 0.00 38 1004.1
20260905123004 61 124 10.0 15.0 0.00 0.00 0.00 38 1004.0
20260905122508 61 116 10.0 16.0 0.00 0.00 0.00 39 1003.9
20260905122005 61 143 10.0 15.0 0.00 0.00 0.00 38 1003.8
20260905121502 63 153 9.0 15.0 0.00 0.00 0.00 37 1003.8
20260905121005 63 125 11.0 18.0 0.00 0.00 0.00 37 1003.8
20260905120501 63 137 13.0 18.0 0.00 0.00 0.00 37 1003.7
20260905120118 63 169 8.0 16.0 0.00 0.00 0.00 36 1003.8
20260905115600 62 122 8.0 17.0 0.00 0.00 0.00 37 1003.6
20260905115103 62 147 10.0 17.0 0.00 0.00 0.00 37 1003.7
20260905114559 62 117 10.0 15.0 0.00 0.00 0.00 37 1003.6
20260905114058 63 138 11.0 16.0 0.00 0.00 0.00 37 1003.6
20260905113559 63 145 11.0 17.0 0.00 0.00 0.00 36 1003.6
20260905113059 65 134 9.0 19.0 0.00 0.00 0.00 36 1003.6
20260905112558 65 122 13.0 22.0 0.00 0.00 0.00 35 1003.6
20260905112057 65 129 15.0 21.0 0.00 0.00 0.00 35 1003.6
20260905111610 65 131 12.0 21.0 0.00 0.00 0.00 36 1003.7
20260905111056 64 132 12.0 19.0 0.00 0.00 0.00 36 1003.6
20260905110555 63 139 14.0 21.0 0.00 0.00 0.00 38 1003.6
20260905110100 63 134 12.0 22.0 0.00 0.00 0.00 37 1003.5
20260905105556 64 134 14.0 22.0 0.00 0.00 0.00 37 1003.5
20260905105054 63 139 13.0 22.0 0.00 0.00 0.00 38 1003.4
20260905104554 63 132 16.0 22.0 0.00 0.00 0.00 38 1003.3
20260905104054 63 131 15.0 21.0 0.00 0.00 0.00 38 1003.3
20260905103554 63 133 15.0 21.0 0.00 0.00 0.00 39 1003.3
20260905103054 63 149 14.0 22.0 0.00 0.00 0.00 40 1003.3
20260905102551 63 134 13.0 22.0 0.00 0.00 0.00 40 1003.3
20260905102051 62 138 14.0 20.0 0.00 0.00 0.00 41 1003.3
20260905101550 62 130 14.0 21.0 0.00 0.00 0.00 40 1003.2
20260905101049 63 133 13.0 21.0 0.00 0.00 0.00 41 1003.2
20260905100548 63 144 15.0 21.0 0.00 0.00 0.00 41 1003.1
20260905100052 63 143 15.0 21.0 0.00 0.00 0.00 40 1003.0
20260905095547 64 145 14.0 19.0 0.00 0.00 0.00 39 1003.0
20260905095046 67 143 14.0 21.0 0.00 0.00 0.00 36 1002.9
20260905094546 69 151 16.0 22.0 0.00 0.00 0.00 33 1002.9
20260905094044 69 149 15.0 23.0 0.00 0.00 0.00 32 1002.7
20260905093544 68 155 16.0 23.0 0.00 0.00 0.00 32 1002.7
20260905093043 69 168 15.0 23.0 0.00 0.00 0.00 33 1002.6
20260905092546 69 156 16.0 21.0 0.00 0.00 0.00 33 1002.6
20260905092042 69 158 13.0 18.0 0.00 0.00 0.00 33 1002.6
20260905091613 69 183 14.0 23.0 0.00 0.00 0.00 32 1002.4
20260905091040 69 153 15.0 23.0 0.00 0.00 0.00 33 1002.4
20260905090540 69 157 18.0 21.0 0.00 0.00 0.00 33 1002.4
20260905090040 68 160 14.0 21.0 0.00 0.00 0.00 34 1002.4
20260905085539 67 170 16.0 20.0 0.00 0.00 0.00 36 1002.3
20260905085038 65 152 15.0 20.0 0.00 0.00 0.00 40 1002.4
20260905084540 64 145 14.0 20.0 0.00 0.00 0.00 42 1002.4
20260905084038 64 130 13.0 18.0 0.00 0.00 0.00 42 1002.4
20260905083537 64 129 11.0 17.0 0.00 0.00 0.00 43 1002.5
20260905083037 64 153 13.0 17.0 0.00 0.00 0.00 43 1002.4
20260905082536 64 135 12.0 19.0 0.00 0.00 0.00 42 1002.3
20260905082036 65 152 12.0 20.0 0.00 0.00 0.00 41 1002.3
20260905081535 65 140 11.0 14.0 0.00 0.00 0.00 40 1002.3
20260905081034 65 153 11.0 15.0 0.00 0.00 0.00 39 1002.2
20260905080536 66 145 10.0 14.0 0.00 0.00 0.00 37 1002.2
20260905080516 66 141 10.0 14.0 0.00 0.00 0.00 37 1002.2
20260905080040 67 155 10.0 14.0 0.00 0.00 0.00 36 1002.2
20260905075532 67 159 11.0 17.0 0.00 0.00 0.00 36 1002.1
20260905075030 66 155 12.0 17.0 0.00 0.00 0.00 39 1002.1
20260905074530 62 153 11.0 17.0 0.00 0.00 0.00 45 1002.0
20260905074033 63 143 12.0 17.0 0.00 0.00 0.00 45 1002.0
20260905073529 64 127 12.0 16.0 0.00 0.00 0.00 43 1002.0
20260905073028 67 140 11.0 16.0 0.00 0.00 0.00 40 1001.9
20260905072527 65 161 14.0 16.0 0.00 0.00 0.00 40 1001.8
20260905072026 64 149 12.0 20.0 0.00 0.00 0.00 43 1001.7
20260905071524 62 141 10.0 15.0 0.00 0.00 0.00 46 1001.6
20260905071027 63 137 10.0 17.0 0.00 0.00 0.00 45 1001.5
20260905070521 63 156 12.0 19.0 0.00 0.00 0.00 44 1001.4
20260905070024 64 144 14.0 19.0 0.00 0.00 0.00 43 1001.3
20260905065519 65 148 12.0 17.0 0.00 0.00 0.00 42 1001.2
20260905065018 66 130 11.0 18.0 0.00 0.00 0.00 41 1001.2
20260905064519 67 129 12.0 20.0 0.00 0.00 0.00 41 1001.2
20260905064016 66 136 12.0 18.0 0.00 0.00 0.00 41 1001.1
20260905063515 66 123 12.0 18.0 0.00 0.00 0.00 41 1001.1
20260905063015 66 131 11.0 16.0 0.00 0.00 0.00 41 1001.0
20260905062518 66 122 13.0 16.0 0.00 0.00 0.00 41 1001.0
20260905062013 66 136 11.0 16.0 0.00 0.00 0.00 42 1001.0
20260905061512 66 136 10.0 14.0 0.00 0.00 0.00 42 1000.9
20260905061012 67 120 10.0 17.0 0.00 0.00 0.00 41 1000.9
20260905060513 68 141 10.0 17.0 0.00 0.00 0.00 39 1000.8
20260905060012 69 146 12.0 18.0 0.00 0.00 0.00 38 1000.8
20260905055509 70 151 13.0 18.0 0.00 0.00 0.00 37 1000.6
20260905055009 70 166 13.0 21.0 0.00 0.00 0.00 37 1000.5
20260905054514 71 131 15.0 21.0 0.00 0.00 0.00 37 1000.5
20260905054006 71 147 13.0 21.0 0.00 0.00 0.00 36 1000.5
20260905053506 72 131 15.0 21.0 0.00 0.00 0.00 36 1000.4
20260905053007 72 148 14.0 22.0 0.00 0.00 0.00 35 1000.4
20260905052509 71 136 17.0 22.0 0.00 0.00 0.00 36 1000.4
20260905052006 70 129 10.0 18.0 0.00 0.00 0.00 37 1000.2
20260905051511 69 187 7.0 14.0 0.00 0.00 0.00 37 1000.2
20260905051004 70 149 9.0 14.0 0.00 0.00 0.00 36 1000.3
20260905050507 72 156 9.0 24.0 0.00 0.00 0.00 35 1000.3
20260905050004 74 158 14.0 24.0 0.00 0.00 0.00 34 1000.2
20260905045505 74 112 18.0 27.0 0.00 0.00 0.00 33 999.9
20260905045006 73 105 20.0 27.0 0.00 0.00 0.00 34 1000.0
20260905044504 73 127 8.0 23.0 0.00 0.00 0.00 34 1000.2
20260905044004 73 176 15.0 23.0 0.00 0.00 0.00 33 1000.2
20260905043504 71 171 10.0 16.0 0.00 0.00 0.00 35 1000.2
20260905043003 71 149 8.0 15.0 0.00 0.00 0.00 34 1000.3
20260905042504 72 158 9.0 15.0 0.00 0.00 0.00 34 1000.3
20260905042002 72 163 9.0 14.0 0.00 0.00 0.00 34 1000.1
20260905041502 71 149 9.0 14.0 0.00 0.00 0.00 35 1000.1
20260905041001 71 152 10.0 18.0 0.00 0.00 0.00 35 1000.2
20260905040502 70 141 9.0 18.0 0.00 0.00 0.00 33 1000.2
20260905040100 71 162 8.0 14.0 0.00 0.00 0.00 33 1000.1
20260905035600 71 159 8.0 14.0 0.00 0.00 0.00 33 1000.1
20260905035105 71 149 9.0 12.0 0.00 0.00 0.00 33 1000.1
20260905034611 71 132 7.0 11.0 0.00 0.00 0.00 34 999.9
20260905034058 72 136 8.0 11.0 0.00 0.00 0.00 31 999.9
20260905033559 73 157 6.0 15.0 0.00 0.00 0.00 31 999.9
20260905033101 75 119 7.0 20.0 0.00 0.00 0.00 31 999.9
20260905032559 76 144 10.0 20.0 0.00 0.00 0.00 29 999.8
20260905032058 76 157 11.0 19.0 0.00 0.00 0.00 29 999.7
20260905031606 77 179 11.0 22.0 0.00 0.00 0.00 28 999.7
20260905031058 77 182 13.0 22.0 0.00 0.00 0.00 28 999.6
20260905030558 76 180 11.0 19.0 0.00 0.00 0.00 28 999.6
20260905030058 76 165 9.0 17.0 0.00 0.00 0.00 28 999.4
20260905025558 76 169 8.0 13.0 0.00 0.00 0.00 28 999.4
20260905025059 76 145 8.0 18.0 0.00 0.00 0.00 28 999.2
20260905024602 76 161 10.0 19.0 0.00 0.00 0.00 28 999.0
20260905024057 76 170 11.0 20.0 0.00 0.00 0.00 28 999.0
20260905023559 75 147 8.0 17.0 0.00 0.00 0.00 29 998.9
20260905023100 75 143 10.0 17.0 0.00 0.00 0.00 29 998.8
20260905022556 75 141 9.0 14.0 0.00 0.00 0.00 30 998.7
20260905022058 76 135 10.0 16.0 0.00 0.00 0.00 30 998.7
20260905021558 76 148 10.0 16.0 0.00 0.00 0.00 29 998.7
20260905021055 77 152 12.0 18.0 0.00 0.00 0.00 28 998.6
20260905020555 77 152 13.0 18.0 0.00 0.00 0.00 28 998.6
20260905020055 77 152 10.0 15.0 0.00 0.00 0.00 28 998.6
20260905015555 78 166 11.0 17.0 0.00 0.00 0.00 27 998.5
20260905015055 78 159 13.0 21.0 0.00 0.00 0.00 28 998.4
20260905014554 78 157 13.0 23.0 0.00 0.00 0.00 28 998.4
20260905014054 79 156 13.0 23.0 0.00 0.00 0.00 28 998.4
20260905013554 79 172 12.0 20.0 0.00 0.00 0.00 28 998.4
20260905013054 80 161 14.0 21.0 0.00 0.00 0.00 27 998.3
20260905012554 80 164 13.0 25.0 0.00 0.00 0.00 28 998.3
20260905012054 81 162 18.0 25.0 0.00 0.00 0.00 27 998.3
20260905011556 81 169 15.0 25.0 0.00 0.00 0.00 27 998.3
20260905011054 81 134 19.0 28.0 0.00 0.00 0.00 27 998.3
20260905010553 81 179 17.0 30.0 0.00 0.00 0.00 27 998.3
20260905010054 82 180 22.0 30.0 0.00 0.00 0.00 27 998.3
20260905005552 82 181 14.0 27.0 0.00 0.00 0.00 26 998.2
20260905005052 82 193 18.0 27.0 0.00 0.00 0.00 26 998.2
20260905004552 83 167 16.0 28.0 0.00 0.00 0.00 26 998.3
20260905004049 83 176 18.0 28.0 0.00 0.00 0.00 26 998.3
20260905003548 83 172 20.0 29.0 0.00 0.00 0.00 27 998.2
20260905003049 83 181 19.0 38.0 0.00 0.00 0.00 27 998.2
20260905002549 83 171 25.0 38.0 0.00 0.00 0.00 26 998.3
20260905002046 84 173 19.0 31.0 0.00 0.00 0.00 26 998.3
20260905001554 84 180 22.0 31.0 0.00 0.00 0.00 25 998.4
20260905001045 84 159 15.0 26.0 0.00 0.00 0.00 26 998.3
20260905000545 84 163 18.0 24.0 0.00 0.00 0.00 26 998.3
20260905000048 84 172 18.0 30.0 0.00 0.00 0.00 26 998.3
20260904235548 84 155 19.0 35.0 0.00 0.00 0.00 26 998.4
20260904235043 84 196 24.0 35.0 0.00 0.00 0.00 26 998.4
20260904234543 84 153 19.0 31.0 0.00 0.00 0.00 26 998.4
20260904234042 84 174 20.0 30.0 0.00 0.00 0.00 26 998.5
20260904233542 84 175 16.0 29.0 0.00 0.00 0.00 26 998.5
20260904233044 84 189 20.0 28.0 0.00 0.00 0.00 25 998.5
20260904232541 84 170 18.0 31.0 0.00 0.00 0.00 25 998.5
20260904232041 85 153 23.0 31.0 0.00 0.00 0.00 25 998.6
20260904231551 85 174 21.0 28.0 0.00 0.00 0.00 24 998.5
20260904231039 84 181 19.0 32.0 0.00 0.00 0.00 25 998.6
20260904230539 85 140 21.0 31.0 0.00 0.00 0.00 24 998.5
20260904230039 85 146 21.0 31.0 0.00 0.00 0.00 25 998.7
20260904225539 85 159 20.0 30.0 0.00 0.00 0.00 24 998.6
20260904225036 85 145 18.0 30.0 0.00 0.00 0.00 25 998.6
20260904224546 85 177 19.0 31.0 0.00 0.00 0.00 25 998.8
20260904224037 84 151 19.0 25.0 0.00 0.00 0.00 24 998.8
20260904223534 84 158 14.0 27.0 0.00 0.00 0.00 26 998.8
20260904223036 84 145 21.0 35.0 0.00 0.00 0.00 26 998.8
20260904222536 84 138 23.0 30.0 0.00 0.00 0.00 25 998.9
20260904222032 84 151 23.0 33.0 0.00 0.00 0.00 25 999.0
20260904221532 84 179 20.0 32.0 0.00 0.00 0.00 24 999.1
20260904221032 84 145 20.0 31.0 0.00 0.00 0.00 26 999.0
20260904220532 84 145 20.0 27.0 0.00 0.00 0.00 25 999.1
20260904220030 84 169 20.0 31.0 0.00 0.00 0.00 25 999.1
20260904215530 83 143 20.0 31.0 0.00 0.00 0.00 26 999.1
20260904215029 84 138 18.0 35.0 0.00 0.00 0.00 26 999.3
20260904214528 83 168 18.0 35.0 0.00 0.00 0.00 25 999.3
20260904214026 83 144 16.0 33.0 0.00 0.00 0.00 26 999.3
20260904213529 82 157 24.0 33.0 0.00 0.00 0.00 25 999.4
20260904213028 83 140 21.0 32.0 0.00 0.00 0.00 25 999.4
20260904212527 83 136 19.0 31.0 0.00 0.00 0.00 25 999.5
20260904212024 84 150 22.0 31.0 0.00 0.00 0.00 25 999.7
20260904211523 84 166 16.0 24.0 0.00 0.00 0.00 24 999.6
20260904211026 83 165 19.0 29.0 0.00 0.00 0.00 25 999.8
20260904210521 83 135 18.0 29.0 0.00 0.00 0.00 25 999.7
20260904210021 83 177 19.0 27.0 0.00 0.00 0.00 25 999.9
20260904205521 83 161 19.0 25.0 0.00 0.00 0.00 25 999.8
20260904205020 82 163 17.0 35.0 0.00 0.00 0.00 25 999.9
20260904204518 82 147 22.0 35.0 0.00 0.00 0.00 25 999.9
20260904204018 82 174 21.0 30.0 0.00 0.00 0.00 24 1000.1
20260904203518 83 154 16.0 28.0 0.00 0.00 0.00 25 1000.1
20260904203016 82 171 17.0 26.0 0.00 0.00 0.00 25 1000.1
20260904202517 81 174 19.0 28.0 0.00 0.00 0.00 27 1000.0
20260904202014 80 124 15.0 30.0 0.00 0.00 0.00 27 1000.2
20260904201514 80 136 20.0 32.0 0.00 0.00 0.00 27 1000.2
20260904201013 80 147 20.0 34.0 0.00 0.00 0.00 27 1000.4
20260904200517 80 163 18.0 32.0 0.00 0.00 0.00 28 1000.4
20260904200013 80 163 18.0 32.0 0.00 0.00 0.00 26 1000.6
20260904195513 80 170 20.0 38.0 0.00 0.00 0.00 26 1000.5
20260904195012 79 188 22.0 38.0 0.00 0.00 0.00 26 1000.5
20260904194512 80 141 18.0 31.0 0.00 0.00 0.00 26 1000.5
20260904194012 80 163 23.0 35.0 0.00 0.00 0.00 25 1000.6
20260904193512 81 142 24.0 35.0 0.00 0.00 0.00 25 1000.6
20260904193011 82 141 20.0 29.0 0.00 0.00 0.00 24 1000.6
20260904192510 81 179 21.0 29.0 0.00 0.00 0.00 25 1000.7
20260904192010 79 165 23.0 33.0 0.00 0.00 0.00 26 1000.8
20260904191511 80 132 21.0 33.0 0.00 0.00 0.00 26 1000.7
20260904191009 79 151 19.0 31.0 0.00 0.00 0.00 28 1000.8
20260904190509 79 132 22.0 31.0 0.00 0.00 0.00 28 1000.9
20260904190010 79 150 16.0 31.0 0.00 0.00 0.00 27 1001.1
20260904185507 78 139 22.0 34.0 0.00 0.00 0.00 28 1001.2
20260904185007 78 149 18.0 34.0 0.00 0.00 0.00 29 1001.3
20260904184507 78 122 18.0 31.0 0.00 0.00 0.00 28 1001.2
20260904184007 78 164 21.0 31.0 0.00 0.00 0.00 27 1001.2
20260904183506 78 150 26.0 33.0 0.00 0.00 0.00 26 1001.3
20260904183012 79 159 20.0 29.0 0.00 0.00 0.00 27 1001.3